GW3788 Weather Reports


time (UTC)temp
F
wind
direction
speed
knots
gust
knots
rain 1hr
in
rain 24hr
in
rain mn
in
humidity
%
barometer
mb
20260507093821 51 260 0.9 1.7 0.00 0.02 0.00 93 1020.8
20260507093721 51 210 1.7 1.7 0.00 0.02 0.00 93 1020.8
20260507093621 51 208 0.9 1.7 0.00 0.02 0.00 92 1020.8
20260507093521 51 208 0.9 1.7 0.00 0.02 0.00 92 1020.8
20260507093421 51 212 0.9 1.7 0.00 0.02 0.00 92 1020.8
20260507093121 51 235 0.9 1.7 0.00 0.02 0.00 93 1020.8
20260507093021 51 230 0.9 1.7 0.00 0.02 0.00 93 1020.8
20260507092921 51 229 0.9 1.7 0.00 0.02 0.00 93 1020.8
20260507092821 51 232 0.9 1.7 0.00 0.02 0.00 93 1020.8
20260507092721 51 224 0.9 1.7 0.00 0.02 0.00 93 1020.8
20260507092621 51 215 1.7 2.6 0.00 0.02 0.00 93 1020.8
20260507092521 51 226 1.7 1.7 0.00 0.02 0.00 93 1020.8
20260507092421 51 213 0.9 1.7 0.00 0.02 0.00 93 1020.8
20260507092322 51 216 2.6 2.6 0.00 0.02 0.00 93 1020.7
20260507092221 51 218 1.7 2.6 0.00 0.02 0.00 94 1020.7
20260507092122 51 217 0.9 0.9 0.00 0.02 0.00 94 1020.7
20260507091821 51 212 1.7 1.7 0.00 0.02 0.00 94 1020.7
20260507091522 51 218 0.9 1.7 0.00 0.02 0.00 94 1020.7
20260507091421 51 256 0.0 0.9 0.00 0.02 0.00 94 1020.7
20260507091321 51 226 0.9 1.7 0.00 0.02 0.00 94 1020.7
20260507091221 51 212 0.9 1.7 0.00 0.02 0.00 94 1020.8
20260507091121 51 197 1.7 1.7 0.00 0.02 0.00 94 1020.8
20260507091022 51 211 1.7 2.6 0.00 0.02 0.00 94 1020.8
20260507090922 51 215 1.7 2.6 0.00 0.02 0.00 94 1020.8
20260507090822 51 238 1.7 2.6 0.00 0.02 0.00 94 1020.8
20260507090722 51 233 1.7 3.5 0.00 0.02 0.00 94 1020.8
20260507090622 51 226 0.9 1.7 0.00 0.02 0.00 94 1020.8
20260507090521 51 234 0.9 1.7 0.00 0.02 0.00 94 1020.8
20260507090221 51 214 0.9 1.7 0.00 0.02 0.00 94 1020.8
20260507090122 51 215 0.9 1.7 0.00 0.02 0.00 94 1020.8
20260507090022 51 208 0.9 1.7 0.00 0.02 0.00 94 1020.8
20260507085922 51 220 0.9 2.6 0.00 0.02 0.00 94 1020.8
20260507085822 51 218 0.0 0.0 0.00 0.02 0.00 94 1020.8
20260507085722 51 224 0.9 1.7 0.00 0.02 0.00 94 1020.8
20260507085422 51 218 1.7 2.6 0.00 0.02 0.00 94 1020.8
20260507085322 51 205 0.9 1.7 0.00 0.02 0.00 94 1020.8
20260507085222 51 219 0.9 1.7 0.00 0.02 0.00 94 1020.7
20260507085122 51 221 1.7 2.6 0.00 0.02 0.00 95 1020.7
20260507085022 51 203 0.0 2.6 0.00 0.02 0.00 95 1020.7
20260507084922 51 0 0.0 0.0 0.00 0.02 0.00 94 1020.7
20260507084622 51 0 0.0 0.0 0.00 0.02 0.00 94 1020.7
20260507084522 51 225 0.0 0.9 0.00 0.02 0.00 95 1020.7
20260507084422 51 225 0.9 2.6 0.00 0.02 0.00 95 1020.7
20260507084322 51 232 0.9 2.6 0.00 0.02 0.00 95 1020.7
20260507084222 51 229 0.0 0.9 0.00 0.02 0.00 95 1020.7
20260507083822 51 240 0.0 0.9 0.00 0.02 0.00 95 1020.7
20260507083722 51 217 0.9 1.7 0.00 0.02 0.00 95 1020.7
20260507083622 51 207 0.9 1.7 0.00 0.02 0.00 95 1020.7
20260507083522 51 217 1.7 1.7 0.00 0.02 0.00 95 1020.7
20260507083422 51 214 0.9 2.6 0.00 0.02 0.00 95 1020.7
20260507083322 51 222 0.9 1.7 0.00 0.02 0.00 95 1020.7
20260507083222 51 232 0.0 0.9 0.00 0.02 0.00 95 1020.7
20260507083122 51 300 0.0 0.0 0.00 0.02 0.00 95 1020.7
20260507083022 51 299 1.7 2.6 0.00 0.02 0.00 95 1020.7
20260507082922 51 208 0.9 1.7 0.00 0.02 0.00 95 1020.7
20260507082822 51 212 1.7 2.6 0.00 0.02 0.00 95 1020.7
20260507082722 51 210 0.9 1.7 0.00 0.02 0.00 95 1020.7
20260507082622 51 217 0.9 1.7 0.00 0.02 0.00 95 1020.7
20260507082522 51 211 1.7 2.6 0.00 0.02 0.00 95 1020.7
20260507082422 51 214 1.7 3.5 0.00 0.02 0.00 95 1020.7
20260507082322 51 213 2.6 3.5 0.00 0.02 0.00 95 1020.7
20260507082222 51 209 1.7 3.5 0.00 0.02 0.00 95 1020.7
20260507082122 51 210 0.9 2.6 0.00 0.02 0.00 95 1020.7
20260507082022 51 283 0.0 0.9 0.00 0.02 0.00 95 1020.7
20260507081922 51 204 0.9 2.6 0.00 0.02 0.00 95 1020.7
20260507081822 51 210 1.7 2.6 0.00 0.02 0.00 95 1020.7
20260507081723 51 272 0.9 1.7 0.00 0.02 0.00 95 1020.7
20260507081423 51 276 0.0 0.9 0.00 0.02 0.00 95 1020.7
20260507081322 52 222 2.6 4.3 0.00 0.02 0.00 96 1020.7
20260507081223 52 207 0.9 3.5 0.00 0.02 0.00 96 1020.7
20260507081123 52 242 0.0 0.9 0.00 0.02 0.00 96 1020.7
20260507081023 52 225 1.7 2.6 0.00 0.02 0.00 96 1020.7
20260507080923 52 218 1.7 1.7 0.00 0.02 0.00 96 1020.6
20260507080823 52 236 0.0 0.9 0.00 0.02 0.00 96 1020.6
20260507080723 52 270 0.0 0.9 0.00 0.02 0.00 96 1020.6
20260507080623 51 248 1.7 3.5 0.00 0.02 0.00 97 1020.6
20260507080523 51 218 1.7 1.7 0.00 0.02 0.00 97 1020.7
20260507080223 51 221 0.9 1.7 0.00 0.02 0.00 97 1020.7
20260507080123 51 212 0.9 1.7 0.00 0.02 0.00 97 1020.7
20260507080023 51 214 1.7 2.6 0.00 0.02 0.00 97 1020.7
20260507075923 51 208 1.7 2.6 0.00 0.02 0.00 97 1020.7
20260507075823 51 205 0.0 1.7 0.00 0.02 0.00 98 1020.7
20260507075123 51 0 0.0 0.0 0.00 0.02 0.00 98 1020.8
20260507075023 51 241 0.0 0.9 0.00 0.02 0.00 98 1020.8
20260507074923 51 241 0.9 1.7 0.00 0.02 0.00 98 1020.8
20260507074823 51 207 0.0 1.7 0.00 0.02 0.00 98 1020.8
20260507074723 51 244 0.0 0.9 0.00 0.02 0.00 98 1020.8
20260507074623 51 223 0.0 0.9 0.00 0.02 0.00 98 1020.8
20260507074523 51 260 0.0 0.0 0.00 0.02 0.00 98 1020.7
20260507074423 51 216 0.9 1.7 0.00 0.02 0.00 98 1020.7
20260507074123 51 233 0.9 2.6 0.00 0.02 0.00 98 1020.7
20260507074023 51 219 0.9 1.7 0.00 0.02 0.00 98 1020.7
20260507073923 51 204 1.7 2.6 0.00 0.02 0.00 98 1020.7
20260507073823 51 210 1.7 2.6 0.00 0.02 0.00 98 1020.7
20260507073723 51 210 0.9 2.6 0.00 0.02 0.00 98 1020.7
20260507073623 51 208 1.7 1.7 0.00 0.02 0.00 98 1020.7
20260507073523 51 226 0.0 0.9 0.00 0.02 0.00 98 1020.7
20260507073223 51 219 0.9 1.7 0.00 0.02 0.00 98 1020.7
20260507073123 51 210 1.7 2.6 0.00 0.02 0.00 98 1020.7
20260507072823 51 228 0.9 2.6 0.00 0.02 0.00 98 1020.7
20260507072723 51 218 0.9 1.7 0.00 0.02 0.00 98 1020.7
20260507072623 51 237 0.9 1.7 0.00 0.02 0.00 98 1020.7
20260507072524 51 226 0.9 1.7 0.00 0.02 0.00 98 1020.7
20260507072423 51 202 0.9 1.7 0.00 0.02 0.00 98 1020.7
20260507072323 51 223 0.0 0.9 0.00 0.02 0.00 98 1020.7
20260507072223 51 0 0.0 0.0 0.00 0.02 0.00 98 1020.7
20260507072123 51 0 0.0 0.0 0.00 0.02 0.00 98 1020.7
20260507072023 51 0 0.0 0.0 0.00 0.02 0.00 98 1020.7
20260507071524 52 0 0.0 0.0 0.00 0.02 0.00 98 1020.6
20260507071224 52 235 0.0 1.7 0.00 0.02 0.00 98 1020.6
20260507071124 52 0 0.0 0.0 0.00 0.02 0.00 98 1020.6
20260507071023 52 221 0.0 0.9 0.00 0.02 0.00 98 1020.6
20260507070924 52 227 0.9 1.7 0.00 0.02 0.00 98 1020.6
20260507070824 52 209 0.9 1.7 0.00 0.02 0.00 98 1020.6
20260507070724 52 262 0.9 1.7 0.00 0.02 0.00 97 1020.6
20260507070624 52 289 0.0 0.9 0.00 0.02 0.00 97 1020.6
20260507070524 52 0 0.0 0.0 0.00 0.02 0.00 97 1020.6
20260507070424 52 238 0.0 1.7 0.00 0.02 0.00 97 1020.6
20260507070324 52 224 0.0 0.9 0.00 0.02 0.00 97 1020.6
20260507070224 52 222 0.9 1.7 0.00 0.02 0.00 97 1020.6
20260507070124 52 229 0.9 1.7 0.00 0.02 0.00 97 1020.6
20260507070024 52 218 0.0 0.9 0.00 0.02 0.00 97 1020.7
20260507070000 52 0 0.0 0.9 0.00 0.02 0.00 97 1020.7
20260507065924 52 221 0.0 0.9 0.00 0.02 0.02 97 1020.7
20260507065824 52 235 0.0 0.9 0.00 0.02 0.02 97 1020.7
20260507065724 52 270 0.0 0.9 0.00 0.02 0.02 97 1020.7
20260507065624 52 267 0.0 0.9 0.00 0.02 0.02 97 1020.7
20260507065524 52 276 0.0 0.9 0.00 0.02 0.02 97 1020.7
20260507065424 52 249 0.9 1.7 0.00 0.02 0.02 97 1020.7
20260507065324 52 237 0.0 0.9 0.00 0.02 0.02 97 1020.6
20260507065024 52 210 0.9 1.7 0.00 0.02 0.02 97 1020.6
20260507064924 52 218 0.0 0.9 0.00 0.02 0.02 97 1020.6
20260507064824 52 224 0.0 0.0 0.00 0.02 0.02 97 1020.6
20260507064724 52 224 0.0 0.9 0.00 0.02 0.02 97 1020.6
20260507064624 52 219 0.0 0.9 0.00 0.02 0.02 97 1020.6
20260507064524 52 214 0.0 0.9 0.00 0.02 0.02 97 1020.6
20260507064424 52 218 0.9 1.7 0.00 0.02 0.02 97 1020.6
20260507064124 52 234 0.0 0.9 0.00 0.02 0.02 96 1020.6
20260507064024 52 275 0.0 0.9 0.00 0.02 0.02 96 1020.6
20260507063924 52 276 0.0 0.9 0.00 0.02 0.02 96 1020.6
20260507063824 52 300 0.0 0.9 0.00 0.02 0.02 96 1020.6
20260507063724 52 0 0.0 0.0 0.00 0.02 0.02 96 1020.6
20260507063424 52 0 0.0 0.0 0.00 0.02 0.02 96 1020.6
20260507063324 52 0 0.0 0.0 0.00 0.02 0.02 96 1020.6
20260507063224 53 347 0.0 0.0 0.00 0.02 0.02 96 1020.6
20260507063124 53 347 0.0 0.9 0.00 0.02 0.02 95 1020.6
20260507063024 53 0 0.0 0.0 0.00 0.02 0.02 95 1020.6
20260507062925 53 0 0.0 0.0 0.00 0.02 0.02 95 1020.7
20260507062824 53 255 0.0 1.7 0.00 0.02 0.02 95 1020.7
20260507062724 53 237 0.0 0.9 0.00 0.02 0.02 95 1020.7
20260507062625 53 0 0.0 0.0 0.00 0.02 0.02 95 1020.7
20260507062524 53 0 0.0 0.0 0.00 0.02 0.02 95 1020.7
20260507062424 53 240 0.0 0.9 0.00 0.02 0.02 95 1020.7
20260507062324 53 279 0.0 0.9 0.00 0.02 0.02 95 1020.8
20260507062224 53 286 0.0 0.9 0.00 0.02 0.02 94 1020.8
20260507061925 53 296 0.0 0.9 0.00 0.02 0.02 93 1020.8
20260507061824 53 300 0.0 1.7 0.00 0.02 0.02 93 1020.8
20260507061724 53 284 0.0 1.7 0.00 0.02 0.02 93 1020.8
20260507061625 53 291 0.0 1.7 0.00 0.02 0.02 92 1020.8
20260507061525 53 320 0.0 0.9 0.00 0.02 0.02 92 1020.8
20260507061224 53 349 0.0 1.7 0.00 0.02 0.02 92 1020.7
20260507061125 53 325 0.0 0.9 0.00 0.02 0.02 92 1020.7
20260507061025 53 0 0.0 0.0 0.00 0.02 0.02 92 1020.7
20260507060925 53 0 0.0 0.0 0.00 0.02 0.02 92 1020.7
20260507060825 53 328 0.0 1.7 0.00 0.02 0.02 91 1020.7
20260507060725 54 340 0.9 1.7 0.00 0.02 0.02 91 1020.7
20260507060425 54 310 0.0 1.7 0.00 0.02 0.02 92 1020.7
20260507060325 54 333 0.0 0.9 0.00 0.02 0.02 92 1020.7
20260507060225 54 8 0.0 0.9 0.00 0.02 0.02 92 1020.7
20260507060125 54 11 0.9 2.6 0.00 0.02 0.02 91 1020.7
20260507060025 54 22 0.0 1.7 0.00 0.02 0.02 91 1020.7
20260507055925 54 0 0.0 0.0 0.00 0.02 0.02 91 1020.7
20260507055425 54 0 0.0 0.0 0.00 0.02 0.02 89 1020.7
20260507055125 54 0 0.0 0.0 0.00 0.02 0.02 88 1020.7
20260507055025 54 0 0.0 0.0 0.00 0.02 0.02 88 1020.7
20260507054925 54 0 0.0 0.0 0.00 0.02 0.02 88 1020.7
20260507054825 54 337 0.0 0.9 0.00 0.02 0.02 87 1020.7
20260507054525 54 329 0.0 0.9 0.00 0.02 0.02 87 1020.8
20260507054425 54 0 0.0 0.0 0.00 0.02 0.02 87 1020.8
20260507054325 54 0 0.0 0.0 0.00 0.02 0.02 87 1020.8
20260507054225 54 0 0.0 0.0 0.00 0.02 0.02 87 1020.7
20260507054125 54 274 0.0 0.9 0.00 0.02 0.02 87 1020.7
20260507054027 54 0 0.0 0.0 0.00 0.02 0.02 87 1020.7
20260507053725 54 0 0.0 0.0 0.00 0.02 0.02 87 1020.7
20260507053625 54 0 0.0 0.0 0.00 0.02 0.02 87 1020.7
20260507053426 54 314 0.0 0.9 0.00 0.02 0.02 87 1020.7
20260507053325 54 0 0.0 0.0 0.00 0.02 0.02 87 1020.7
20260507053225 54 342 0.9 1.7 0.00 0.02 0.02 88 1020.7
20260507053125 54 330 0.0 1.7 0.00 0.02 0.02 89 1020.7
20260507053026 54 0 0.0 0.0 0.00 0.02 0.02 89 1020.7
20260507052925 54 0 0.0 0.0 0.00 0.02 0.02 89 1020.7
20260507052626 54 327 0.0 0.0 0.00 0.02 0.02 86 1020.7
20260507052526 54 219 0.0 0.9 0.00 0.02 0.02 86 1020.7
20260507052425 54 251 0.0 0.9 0.00 0.02 0.02 86 1020.7
20260507052325 54 244 0.0 0.9 0.00 0.02 0.02 86 1020.7
20260507052225 54 220 0.9 1.7 0.00 0.02 0.02 86 1020.7
20260507052126 54 215 0.9 1.7 0.00 0.02 0.02 87 1020.7
20260507052025 54 208 0.0 0.9 0.00 0.02 0.02 87 1020.6
20260507051926 54 299 0.0 0.0 0.00 0.02 0.02 88 1020.7
20260507051825 54 0 0.0 0.0 0.00 0.02 0.02 88 1020.7
20260507051725 54 0 0.0 0.0 0.00 0.02 0.02 88 1020.7
20260507051625 54 0 0.0 0.0 0.00 0.02 0.02 88 1020.7
20260507051525 54 0 0.0 0.0 0.00 0.02 0.02 87 1020.7
20260507051426 54 0 0.0 0.0 0.00 0.02 0.02 87 1020.7
20260507051326 54 0 0.0 0.0 0.00 0.02 0.02 88 1020.7
20260507051226 54 0 0.0 0.0 0.00 0.02 0.02 89 1020.7
20260507051125 54 0 0.0 0.0 0.00 0.02 0.02 89 1020.7
20260507051026 54 2 0.0 1.7 0.00 0.02 0.02 88 1020.7
20260507050726 54 0 0.0 0.0 0.00 0.02 0.02 86 1020.7
20260507050626 54 0 0.0 0.0 0.00 0.02 0.02 87 1020.7
20260507050526 54 248 0.0 0.0 0.00 0.02 0.02 87 1020.7
20260507050426 54 247 0.9 1.7 0.00 0.02 0.02 87 1020.7
20260507050326 54 230 0.9 1.7 0.00 0.02 0.02 87 1020.7
20260507050026 54 0 0.0 0.0 0.00 0.02 0.02 90 1020.7
20260507045728 54 0 0.0 0.0 0.00 0.02 0.02 89 1020.7
20260507045626 54 0 0.0 0.0 0.00 0.02 0.02 89 1020.6
20260507045326 54 278 0.0 0.0 0.00 0.02 0.02 90 1020.7
20260507045226 54 0 0.0 0.0 0.00 0.02 0.02 90 1020.7
20260507045126 54 0 0.0 0.0 0.00 0.02 0.02 91 1020.7
20260507044826 54 346 0.0 0.9 0.00 0.02 0.02 90 1020.7
20260507044526 54 0 0.0 0.0 0.00 0.02 0.02 91 1020.7
20260507044426 54 0 0.0 0.0 0.00 0.02 0.02 90 1020.7
20260507044326 54 0 0.0 0.0 0.00 0.02 0.02 90 1020.7
20260507044226 54 0 0.0 0.0 0.00 0.02 0.02 90 1020.7
20260507044126 54 0 0.0 0.0 0.00 0.02 0.02 90 1020.7
20260507044026 54 0 0.0 0.0 0.00 0.02 0.02 89 1020.7
20260507043926 54 0 0.0 0.0 0.00 0.02 0.02 89 1020.7
20260507043626 54 253 0.9 1.7 0.00 0.02 0.02 88 1020.6
20260507043526 54 230 0.0 1.7 0.00 0.02 0.02 90 1020.6
20260507043427 54 0 0.0 0.0 0.00 0.02 0.02 90 1020.6
20260507043127 54 0 0.0 0.0 0.00 0.02 0.02 90 1020.6
20260507043026 54 0 0.0 0.0 0.00 0.02 0.02 90 1020.6
20260507042926 54 0 0.0 0.0 0.00 0.02 0.02 90 1020.6
20260507042626 54 0 0.0 0.0 0.00 0.02 0.02 90 1020.6
20260507042527 54 0 0.0 0.0 0.00 0.02 0.02 90 1020.7
20260507042427 54 359 0.0 0.9 0.00 0.02 0.02 90 1020.7
20260507042327 54 0 0.0 0.0 0.00 0.02 0.02 90 1020.7
20260507042227 54 0 0.0 0.0 0.00 0.02 0.02 90 1020.7
20260507042127 54 0 0.0 0.0 0.00 0.02 0.02 90 1020.7
20260507042027 54 0 0.0 0.0 0.00 0.02 0.02 90 1020.7
20260507041927 54 0 0.0 0.0 0.00 0.02 0.02 90 1020.7
20260507041427 54 0 0.0 0.0 0.00 0.02 0.02 89 1020.7
20260507041326 54 0 0.0 0.0 0.00 0.02 0.02 89 1020.7
20260507041227 54 0 0.0 0.0 0.00 0.02 0.02 89 1020.7
20260507041127 54 0 0.0 0.0 0.00 0.02 0.02 89 1020.7
20260507041027 54 0 0.0 0.0 0.00 0.02 0.02 89 1020.7
20260507040527 54 0 0.0 0.0 0.00 0.02 0.02 89 1020.7
20260507040427 54 0 0.0 0.0 0.00 0.02 0.02 89 1020.7
20260507040327 54 0 0.0 0.0 0.00 0.02 0.02 88 1020.7
20260507040227 54 0 0.0 0.0 0.00 0.02 0.02 88 1020.6
20260507040127 54 0 0.0 0.0 0.00 0.02 0.02 88 1020.6
20260507040027 54 0 0.0 0.0 0.00 0.02 0.02 88 1020.6
20260507035927 54 285 0.0 0.9 0.00 0.02 0.02 89 1020.6
20260507035827 54 0 0.0 0.0 0.00 0.02 0.02 89 1020.6
20260507035327 54 0 0.0 0.0 0.00 0.02 0.02 88 1020.5
20260507035227 54 0 0.0 0.0 0.00 0.02 0.02 88 1020.5
20260507035127 54 0 0.0 0.0 0.00 0.02 0.02 88 1020.5
20260507035027 54 0 0.0 0.0 0.00 0.02 0.02 88 1020.5
20260507034927 54 283 0.0 0.9 0.00 0.02 0.02 88 1020.5
20260507034827 54 0 0.0 0.0 0.00 0.02 0.02 88 1020.5
20260507034727 54 0 0.0 0.0 0.00 0.02 0.02 89 1020.5
20260507034627 54 0 0.0 0.0 0.00 0.02 0.02 89 1020.5
20260507034527 54 0 0.0 0.0 0.00 0.02 0.02 89 1020.4
20260507034427 54 0 0.0 0.0 0.00 0.02 0.02 89 1020.4
20260507034327 54 0 0.0 0.0 0.00 0.02 0.02 89 1020.4
20260507034227 54 0 0.0 0.0 0.00 0.02 0.02 89 1020.4
20260507034127 54 0 0.0 0.0 0.00 0.02 0.02 89 1020.4
20260507034027 54 0 0.0 0.0 0.00 0.02 0.02 88 1020.4
20260507033327 54 0 0.0 0.0 0.00 0.02 0.02 88 1020.3
20260507033227 54 0 0.0 0.0 0.00 0.02 0.02 88 1020.3
20260507033128 54 0 0.0 0.0 0.00 0.02 0.02 88 1020.3
20260507033027 54 0 0.0 0.0 0.00 0.02 0.02 88 1020.3
20260507032927 54 0 0.0 0.0 0.00 0.02 0.02 88 1020.3
20260507032828 54 0 0.0 0.0 0.00 0.02 0.02 88 1020.3
20260507032728 54 0 0.0 0.0 0.00 0.02 0.02 87 1020.3
20260507032627 54 0 0.0 0.0 0.00 0.02 0.02 87 1020.3
20260507032527 54 0 0.0 0.0 0.00 0.02 0.02 88 1020.3
20260507032228 55 0 0.0 0.0 0.00 0.02 0.02 87 1020.3
20260507032127 55 0 0.0 0.0 0.00 0.02 0.02 87 1020.2
20260507032027 55 0 0.0 0.0 0.00 0.02 0.02 87 1020.2
20260507031928 55 0 0.0 0.0 0.00 0.02 0.02 87 1020.2
20260507031828 55 0 0.0 0.0 0.00 0.02 0.02 87 1020.2
20260507031528 55 0 0.0 0.0 0.00 0.02 0.02 87 1020.2
20260507031428 55 0 0.0 0.0 0.00 0.02 0.02 87 1020.2
20260507031328 55 0 0.0 0.0 0.00 0.02 0.02 87 1020.1
20260507031228 55 0 0.0 0.0 0.00 0.02 0.02 87 1020.1
20260507031128 55 0 0.0 0.0 0.00 0.02 0.02 87 1020.1
20260507031028 55 0 0.0 0.0 0.00 0.02 0.02 87 1020.1
20260507030928 55 0 0.0 0.0 0.00 0.02 0.02 87 1020.1
20260507030828 55 0 0.0 0.0 0.00 0.02 0.02 87 1020.1
20260507030728 55 0 0.0 0.0 0.00 0.02 0.02 86 1020.1
20260507030628 55 0 0.0 0.0 0.00 0.02 0.02 86 1020.1
20260507030128 55 0 0.0 0.0 0.00 0.02 0.02 87 1020.1
20260507030028 55 0 0.0 0.0 0.00 0.02 0.02 86 1020.1
20260507025728 55 0 0.0 0.0 0.00 0.02 0.02 86 1020.1
20260507025628 55 0 0.0 0.0 0.00 0.02 0.02 86 1020.1
20260507025328 55 0 0.0 0.0 0.00 0.02 0.02 86 1020.1
20260507025028 55 0 0.0 0.0 0.00 0.02 0.02 86 1020.1
20260507024928 55 0 0.0 0.0 0.00 0.02 0.02 86 1020.1
20260507024828 55 0 0.0 0.0 0.00 0.02 0.02 85 1020.1
20260507024528 55 0 0.0 0.0 0.00 0.02 0.02 85 1020.1
20260507024428 55 0 0.0 0.0 0.00 0.02 0.02 85 1020.1
20260507023929 55 0 0.0 0.0 0.00 0.02 0.02 85 1020.0
20260507023828 55 0 0.0 0.0 0.00 0.02 0.02 86 1020.0
20260507023728 55 0 0.0 0.0 0.00 0.02 0.02 86 1020.0
20260507023629 55 0 0.0 0.0 0.00 0.02 0.02 86 1020.0
20260507023528 55 0 0.0 0.0 0.00 0.02 0.02 86 1020.0
20260507023428 55 0 0.0 0.0 0.00 0.02 0.02 85 1020.0
20260507023328 55 0 0.0 0.0 0.00 0.02 0.02 85 1020.0
20260507023228 55 0 0.0 0.0 0.00 0.02 0.02 85 1020.0
20260507022928 55 0 0.0 0.0 0.00 0.02 0.02 86 1020.0
20260507022829 55 0 0.0 0.0 0.00 0.02 0.02 85 1020.0
20260507022728 55 0 0.0 0.0 0.00 0.02 0.02 86 1020.0
20260507022629 55 0 0.0 0.0 0.00 0.02 0.02 85 1020.0
20260507022328 55 0 0.0 0.0 0.00 0.02 0.02 85 1020.0
20260507022229 55 0 0.0 0.9 0.00 0.02 0.02 85 1020.0
20260507022129 55 0 0.0 0.0 0.00 0.02 0.02 85 1020.0
20260507022029 55 0 0.0 0.0 0.00 0.02 0.02 85 1020.0
20260507021929 55 0 0.0 0.0 0.00 0.02 0.02 86 1020.0
20260507021829 55 0 0.0 0.0 0.00 0.02 0.02 85 1020.0
20260507021729 55 0 0.0 0.0 0.00 0.02 0.02 85 1020.0
20260507021629 55 0 0.0 0.0 0.00 0.02 0.02 86 1020.0
20260507021529 55 0 0.0 0.0 0.00 0.02 0.02 85 1020.0
20260507021428 55 0 0.0 0.0 0.00 0.02 0.02 85 1020.0
20260507021329 55 0 0.0 0.0 0.00 0.02 0.02 85 1020.0
20260507021229 55 0 0.0 0.0 0.00 0.02 0.02 85 1020.1
20260507021129 55 0 0.0 0.0 0.00 0.02 0.02 84 1020.0
20260507021029 55 0 0.0 0.0 0.00 0.02 0.02 84 1020.0
20260507020929 55 0 0.0 0.0 0.00 0.02 0.02 84 1020.0
20260507020829 55 0 0.0 0.0 0.00 0.02 0.02 84 1020.1
20260507020729 55 0 0.0 0.0 0.00 0.02 0.02 84 1020.1
20260507020629 55 0 0.0 0.0 0.00 0.02 0.02 85 1020.1
20260507020529 55 0 0.0 0.0 0.00 0.02 0.02 85 1020.1
20260507020029 55 0 0.0 0.0 0.00 0.02 0.02 84 1020.1
20260507015929 55 0 0.0 0.0 0.00 0.02 0.02 84 1020.1
20260507015829 55 0 0.0 0.0 0.00 0.02 0.02 84 1020.1
20260507015729 55 0 0.0 0.0 0.00 0.02 0.02 84 1020.1
20260507015430 55 0 0.0 0.0 0.00 0.02 0.02 84 1020.1
20260507015129 55 0 0.0 0.0 0.00 0.02 0.02 84 1020.1
20260507015029 55 0 0.0 0.0 0.00 0.02 0.02 83 1020.1
20260507014929 55 0 0.0 0.0 0.00 0.02 0.02 84 1020.1
20260507014829 55 0 0.0 0.0 0.00 0.02 0.02 84 1020.0
20260507014729 56 0 0.0 0.0 0.00 0.02 0.02 84 1020.0
20260507014429 56 0 0.0 0.0 0.00 0.02 0.02 83 1020.0
20260507013929 56 0 0.0 0.0 0.00 0.02 0.02 84 1020.0
20260507013829 56 0 0.0 0.0 0.00 0.02 0.02 83 1020.0
20260507013729 56 0 0.0 0.0 0.00 0.02 0.02 83 1020.0
20260507013629 56 0 0.0 0.0 0.00 0.02 0.02 83 1020.0
20260507013329 56 0 0.0 0.0 0.00 0.02 0.02 83 1020.0
20260507013230 56 0 0.0 0.0 0.00 0.02 0.02 83 1020.0
20260507013130 56 0 0.0 0.0 0.00 0.02 0.02 83 1020.0
20260507013029 56 341 0.0 0.9 0.00 0.02 0.02 83 1020.0
20260507012730 56 0 0.0 0.0 0.00 0.02 0.02 83 1020.0
20260507012630 56 0 0.0 0.0 0.00 0.02 0.02 83 1020.0
20260507012529 56 0 0.0 1.7 0.00 0.02 0.02 82 1020.0
20260507012430 56 0 0.0 0.0 0.00 0.02 0.02 82 1019.9
20260507012330 56 0 0.0 0.0 0.00 0.02 0.02 82 1020.0
20260507011830 56 290 0.0 1.7 0.00 0.02 0.02 83 1020.0
20260507011530 56 171 0.0 1.7 0.00 0.02 0.02 82 1020.0
20260507011430 56 0 0.0 0.0 0.00 0.02 0.02 82 1020.0
20260507011330 56 0 0.0 0.0 0.00 0.02 0.02 82 1020.0
20260507011230 56 0 0.0 0.0 0.00 0.02 0.02 82 1020.0
20260507011130 56 113 0.0 0.9 0.00 0.02 0.02 82 1020.0
20260507011030 56 0 0.0 0.0 0.00 0.02 0.02 82 1020.0
20260507010830 56 0 0.0 0.0 0.00 0.02 0.02 83 1020.0
20260507010730 56 62 0.0 0.0 0.00 0.02 0.02 84 1020.0
20260507010630 56 78 0.0 1.7 0.00 0.02 0.02 84 1020.0
20260507010330 56 331 0.0 0.9 0.00 0.02 0.02 83 1020.1
20260507010230 56 0 0.0 0.0 0.00 0.02 0.02 83 1020.1
20260507010130 56 0 0.0 0.0 0.00 0.02 0.02 83 1020.1
20260507010030 56 0 0.0 0.0 0.00 0.02 0.02 82 1020.1
20260507005930 56 0 0.0 0.0 0.00 0.02 0.02 83 1020.1
20260507005830 56 0 0.0 0.0 0.00 0.02 0.02 83 1020.1
20260507005730 56 0 0.0 0.0 0.00 0.02 0.02 83 1020.1
20260507005630 56 0 0.0 0.0 0.00 0.02 0.02 83 1020.1
20260507005530 56 0 0.0 0.0 0.00 0.02 0.02 83 1020.1
20260507005430 56 111 0.9 2.6 0.00 0.02 0.02 82 1020.1
20260507005330 56 118 1.7 2.6 0.00 0.02 0.02 82 1020.1
20260507005230 56 0 0.0 0.0 0.00 0.02 0.02 83 1020.1
20260507005131 56 0 0.0 0.0 0.00 0.02 0.02 83 1020.1
20260507004830 56 0 0.0 0.0 0.00 0.02 0.02 83 1020.1
20260507004730 56 0 0.0 0.0 0.00 0.02 0.02 82 1020.1
20260507004630 56 0 0.0 0.0 0.00 0.02 0.02 83 1020.1
20260507004530 56 0 0.0 0.0 0.00 0.02 0.02 82 1020.1
20260507004430 56 0 0.0 0.0 0.00 0.02 0.02 82 1020.1
20260507004330 56 60 0.0 0.0 0.00 0.02 0.02 83 1020.2
20260507004230 56 105 0.0 0.9 0.00 0.02 0.02 82 1020.2
20260507004131 56 150 0.0 0.9 0.00 0.02 0.02 82 1020.2
20260507003830 56 0 0.0 0.0 0.00 0.02 0.02 82 1020.2
20260507003530 56 0 0.0 0.0 0.00 0.02 0.02 82 1020.2
20260507003430 56 242 0.0 0.9 0.00 0.02 0.02 82 1020.2
20260507003331 56 0 0.0 0.0 0.00 0.02 0.02 82 1020.2
20260507003230 56 0 0.0 0.0 0.00 0.02 0.02 82 1020.2
20260507003131 56 0 0.0 0.0 0.00 0.02 0.02 83 1020.2
20260507003040 56 0 0.0 0.0 0.00 0.02 0.02 82 1020.2
20260507002931 56 0 0.0 0.0 0.00 0.02 0.02 82 1020.2
20260507002831 56 0 0.0 0.0 0.00 0.02 0.02 82 1020.2
20260507002531 56 0 0.0 0.0 0.00 0.02 0.02 82 1020.3
20260507002431 56 213 0.9 1.7 0.00 0.02 0.02 82 1020.3
20260507002330 56 0 0.0 0.0 0.00 0.02 0.02 82 1020.3
20260507001831 56 0 0.0 0.0 0.00 0.02 0.02 83 1020.3
20260507001731 56 250 0.0 0.9 0.00 0.02 0.02 83 1020.3
20260507001631 56 0 0.0 0.0 0.00 0.02 0.02 83 1020.2
20260507001531 56 0 0.0 0.0 0.00 0.02 0.02 83 1020.2
20260507001431 56 0 0.0 0.0 0.00 0.02 0.02 83 1020.2
20260507001331 56 0 0.0 0.0 0.00 0.02 0.02 83 1020.2
20260507001231 56 0 0.0 0.0 0.00 0.02 0.02 82 1020.2
20260507001131 56 191 0.0 1.7 0.00 0.02 0.02 82 1020.2
20260507001031 56 0 0.0 0.0 0.00 0.02 0.02 82 1020.2
20260507000931 56 259 0.0 0.0 0.00 0.02 0.02 82 1020.2
20260507000631 56 0 0.0 0.0 0.00 0.02 0.02 82 1020.2
20260507000531 56 0 0.0 0.0 0.00 0.02 0.02 82 1020.2
20260507000431 56 0 0.0 0.0 0.00 0.02 0.02 82 1020.2
20260507000331 56 0 0.0 0.0 0.00 0.02 0.02 82 1020.2
20260507000031 56 261 0.0 0.0 0.00 0.02 0.02 82 1020.2
20260506235931 56 317 0.0 1.7 0.00 0.02 0.02 82 1020.2
20260506235631 56 0 0.0 0.0 0.00 0.02 0.02 81 1020.2
20260506235531 56 0 0.0 0.0 0.00 0.02 0.02 81 1020.3
20260506235431 56 294 0.0 0.9 0.00 0.02 0.02 82 1020.3
20260506235331 56 0 0.0 0.0 0.00 0.02 0.02 82 1020.3
20260506235231 56 0 0.0 0.0 0.00 0.02 0.02 81 1020.3
20260506235131 56 246 0.0 0.0 0.00 0.02 0.02 81 1020.3
20260506235031 56 245 0.9 1.7 0.00 0.02 0.02 81 1020.3
20260506234931 56 359 0.0 0.9 0.00 0.02 0.02 81 1020.3
20260506234831 56 322 0.0 1.7 0.00 0.02 0.02 82 1020.3
20260506234731 56 329 0.0 0.9 0.00 0.02 0.02 82 1020.3
20260506234631 56 312 0.0 0.9 0.00 0.02 0.02 82 1020.3
20260506234531 56 328 0.0 1.7 0.00 0.02 0.02 82 1020.3
20260506234232 56 326 0.9 1.7 0.00 0.02 0.02 81 1020.3
20260506234131 56 0 0.0 0.0 0.00 0.02 0.02 81 1020.3
20260506233831 56 356 0.0 0.9 0.00 0.02 0.02 82 1020.3
20260506233732 56 0 0.0 0.0 0.00 0.02 0.02 81 1020.3
20260506233631 56 0 0.0 0.0 0.00 0.02 0.02 81 1020.3
20260506233532 56 298 0.0 1.7 0.00 0.02 0.02 81 1020.3
20260506233432 56 309 0.0 0.0 0.00 0.02 0.02 81 1020.3
20260506233331 56 0 0.0 0.0 0.00 0.02 0.02 81 1020.3
20260506233231 56 0 0.0 0.0 0.00 0.02 0.02 81 1020.3
20260506233131 56 0 0.0 0.0 0.00 0.02 0.02 81 1020.3
20260506233031 56 318 0.0 1.7 0.00 0.02 0.02 81 1020.3
20260506232931 56 334 0.9 1.7 0.00 0.02 0.02 81 1020.3
20260506232832 56 342 0.9 1.7 0.00 0.02 0.02 82 1020.3
20260506232531 56 0 0.0 0.0 0.00 0.02 0.02 81 1020.3
20260506232432 56 300 0.0 1.7 0.00 0.02 0.02 81 1020.3
20260506232332 56 264 0.0 0.0 0.00 0.02 0.02 81 1020.3
20260506232232 56 298 0.0 1.7 0.01 0.02 0.02 82 1020.3
20260506232132 56 302 0.0 0.9 0.01 0.02 0.02 82 1020.3
20260506231832 56 328 0.0 2.6 0.02 0.02 0.02 82 1020.3
20260506231732 56 0 0.0 0.0 0.02 0.02 0.02 82 1020.3
20260506231632 56 296 0.0 0.9 0.02 0.02 0.02 83 1020.3
20260506231532 55 0 0.0 0.0 0.02 0.02 0.02 83 1020.3
20260506231432 55 358 0.0 0.9 0.02 0.02 0.02 83 1020.3
20260506231332 55 0 0.0 0.0 0.02 0.02 0.02 82 1020.3
20260506231232 55 0 0.0 0.0 0.02 0.02 0.02 82 1020.3
20260506231132 55 0 0.0 0.0 0.02 0.02 0.02 83 1020.3
20260506231032 55 0 0.0 0.0 0.02 0.02 0.02 82 1020.3
20260506230532 55 253 0.0 0.9 0.02 0.02 0.02 82 1020.3
20260506230432 55 248 0.0 0.9 0.02 0.02 0.02 82 1020.3
20260506230332 55 243 0.0 1.7 0.02 0.02 0.02 82 1020.3
20260506230232 55 238 1.7 2.6 0.02 0.02 0.02 81 1020.3
20260506230132 56 232 0.9 1.7 0.02 0.02 0.02 81 1020.3
20260506225632 56 261 0.0 0.0 0.02 0.02 0.02 81 1020.3
20260506225532 56 300 0.0 0.9 0.02 0.02 0.02 81 1020.3
20260506225432 55 247 0.0 0.0 0.02 0.02 0.02 82 1020.3
20260506225332 55 0 0.0 0.0 0.02 0.02 0.02 82 1020.3
20260506225232 55 271 0.0 0.9 0.02 0.02 0.02 82 1020.3
20260506225132 55 279 0.0 0.9 0.02 0.02 0.02 82 1020.3
20260506224832 55 298 0.0 0.9 0.02 0.02 0.02 82 1020.3
20260506224732 55 276 0.0 0.0 0.02 0.02 0.02 82 1020.3
20260506224632 55 283 0.9 2.6 0.02 0.02 0.02 82 1020.3
20260506224532 55 282 0.0 3.5 0.02 0.02 0.02 82 1020.3
20260506224432 55 0 0.0 0.0 0.02 0.02 0.02 82 1020.3
20260506224332 55 351 0.0 1.7 0.02 0.02 0.02 82 1020.4
20260506224233 55 330 0.9 1.7 0.02 0.02 0.02 82 1020.4
20260506224132 55 288 1.7 3.5 0.02 0.02 0.02 82 1020.4
20260506224033 55 247 1.7 3.5 0.02 0.02 0.02 82 1020.4
20260506223933 55 268 0.9 2.6 0.02 0.02 0.02 82 1020.4
20260506223832 55 245 0.9 1.7 0.02 0.02 0.02 82 1020.4
20260506223732 55 237 1.7 2.6 0.02 0.02 0.02 82 1020.4
20260506223632 55 241 1.7 2.6 0.02 0.02 0.02 82 1020.4
20260506223532 55 216 2.6 3.5 0.02 0.02 0.02 82 1020.4
20260506223432 55 233 1.7 3.5 0.02 0.02 0.02 82 1020.4
20260506223333 55 251 0.9 1.7 0.02 0.02 0.02 82 1020.4
20260506223232 55 267 0.0 0.9 0.02 0.02 0.02 82 1020.4
20260506223132 55 246 0.9 2.6 0.02 0.02 0.02 82 1020.5
20260506223033 55 238 1.7 3.5 0.02 0.02 0.02 82 1020.5
20260506222933 56 226 1.7 3.5 0.02 0.02 0.02 82 1020.5
20260506222833 56 230 0.9 1.7 0.02 0.02 0.02 82 1020.5
20260506222733 56 228 1.7 4.3 0.02 0.02 0.02 82 1020.5
20260506222633 56 227 2.6 3.5 0.02 0.02 0.02 82 1020.5
20260506222533 56 217 0.9 2.6 0.02 0.02 0.02 82 1020.5
20260506222433 56 231 0.9 1.7 0.02 0.02 0.02 83 1020.5
20260506222333 56 258 0.0 0.9 0.01 0.02 0.02 83 1020.5
20260506222233 56 295 0.0 0.9 0.01 0.01 0.02 83 1020.5
20260506221933 55 280 0.0 1.7 0.00 0.01 0.01 83 1020.5
20260506221833 55 303 0.0 0.9 0.00 0.00 0.01 83 1020.5
20260506221533 55 301 0.0 1.7 0.00 0.00 0.00 83 1020.6
20260506221433 55 292 0.9 1.7 0.00 0.00 0.00 83 1020.6
20260506221333 55 0 0.0 0.0 0.00 0.00 0.00 83 1020.6
20260506221233 55 315 0.0 1.7 0.00 0.00 0.00 84 1020.6
20260506221133 55 280 0.0 0.9 0.00 0.00 0.00 83 1020.6
20260506221033 55 324 0.9 2.6 0.00 0.00 0.00 83 1020.6
20260506220933 55 262 0.9 2.6 0.00 0.00 0.00 83 1020.6
20260506220833 55 237 0.9 2.6 0.00 0.00 0.00 83 1020.6
20260506220733 55 244 1.7 3.5 0.00 0.00 0.00 84 1020.6
20260506220433 55 272 1.7 2.6 0.00 0.00 0.00 84 1020.6
20260506220333 55 276 0.0 1.7 0.00 0.00 0.00 84 1020.6
20260506220233 55 223 2.6 3.5 0.00 0.00 0.00 84 1020.5
20260506215933 55 286 0.0 0.9 0.00 0.00 0.00 84 1020.6
20260506215833 55 240 0.9 1.7 0.00 0.00 0.00 85 1020.6
20260506215733 55 252 0.9 1.7 0.00 0.00 0.00 85 1020.6
20260506215433 55 294 0.9 1.7 0.00 0.00 0.00 85 1020.6
20260506215333 55 329 0.0 2.6 0.00 0.00 0.00 86 1020.5
20260506215233 55 0 0.9 2.6 0.00 0.00 0.00 86 1020.5
20260506215133 55 280 0.9 2.6 0.00 0.00 0.00 86 1020.5
20260506214833 55 0 0.0 0.0 0.00 0.00 0.00 85 1020.5
20260506214733 55 246 0.0 0.9 0.00 0.00 0.00 86 1020.5
20260506214433 55 312 0.0 0.9 0.00 0.00 0.00 86 1020.5
20260506213934 55 286 0.9 1.7 0.00 0.00 0.00 86 1020.5
20260506213833 55 271 1.7 2.6 0.00 0.00 0.00 86 1020.6
20260506213734 55 319 0.9 3.5 0.00 0.00 0.00 86 1020.6
20260506213633 55 319 1.7 3.5 0.00 0.00 0.00 86 1020.6
20260506213534 55 324 2.6 3.5 0.00 0.00 0.00 86 1020.6
20260506213433 55 263 0.0 1.7 0.00 0.00 0.00 86 1020.6
20260506213334 55 276 1.7 3.5 0.00 0.00 0.00 86 1020.6
20260506213234 55 331 0.9 3.5 0.00 0.00 0.00 86 1020.6
20260506213134 55 18 0.9 2.6 0.00 0.00 0.00 86 1020.6
20260506212634 55 221 0.0 1.7 0.00 0.00 0.00 87 1020.5
20260506212534 55 239 0.9 2.6 0.00 0.00 0.00 87 1020.5
20260506212434 55 239 0.0 1.7 0.00 0.00 0.00 87 1020.5
20260506212334 55 225 0.9 2.6 0.00 0.00 0.00 86 1020.5
20260506212234 56 228 1.7 2.6 0.00 0.00 0.00 86 1020.5
20260506212134 56 229 0.9 2.6 0.00 0.00 0.00 87 1020.5
20260506211634 55 250 0.0 0.9 0.00 0.00 0.00 87 1020.6
20260506211534 55 263 0.0 0.9 0.00 0.00 0.00 87 1020.5
20260506211234 55 234 0.9 1.7 0.00 0.00 0.00 87 1020.5
20260506211134 55 255 0.9 2.6 0.00 0.00 0.00 87 1020.5
20260506211034 55 255 0.0 1.7 0.00 0.00 0.00 87 1020.5
20260506210934 55 271 0.9 1.7 0.00 0.00 0.00 87 1020.5
20260506210834 55 228 1.7 2.6 0.00 0.00 0.00 87 1020.5
20260506210734 55 256 0.0 0.9 0.00 0.00 0.00 87 1020.5
20260506210634 55 298 0.9 1.7 0.00 0.00 0.00 88 1020.5
20260506210534 55 0 0.0 0.0 0.00 0.00 0.00 88 1020.5
20260506210234 55 236 0.0 0.9 0.00 0.00 0.00 88 1020.5
20260506210134 56 221 0.9 2.6 0.00 0.00 0.00 88 1020.5
20260506210034 56 220 1.7 2.6 0.00 0.00 0.00 87 1020.5
20260506205934 56 217 1.7 2.6 0.00 0.00 0.00 87 1020.5
20260506205834 56 243 0.9 1.7 0.00 0.00 0.00 87 1020.5
20260506205734 56 231 0.9 2.6 0.00 0.00 0.00 87 1020.5
20260506205634 56 282 0.9 1.7 0.00 0.00 0.00 87 1020.5
20260506205334 56 329 0.0 0.0 0.00 0.00 0.00 88 1020.5
20260506205234 56 0 0.0 0.0 0.00 0.00 0.00 88 1020.4
20260506205134 56 0 0.0 0.0 0.00 0.00 0.00 89 1020.4
20260506205034 56 310 0.0 0.9 0.00 0.00 0.00 89 1020.4
20260506204934 56 279 0.0 0.9 0.00 0.00 0.00 88 1020.4
20260506204634 56 222 1.7 2.6 0.00 0.00 0.00 87 1020.4
20260506204334 56 124 0.0 1.7 0.00 0.00 0.00 87 1020.4
20260506204234 56 0 0.0 0.0 0.00 0.00 0.00 87 1020.4
20260506203934 56 328 0.9 1.7 0.00 0.00 0.00 87 1020.4
20260506203834 56 336 0.0 1.7 0.00 0.00 0.00 87 1020.4
20260506203535 56 7 0.0 1.7 0.00 0.00 0.00 87 1020.3
20260506203235 56 311 0.9 1.7 0.00 0.00 0.00 87 1020.4
20260506203135 56 319 0.9 3.5 0.00 0.00 0.00 87 1020.4
20260506203035 56 243 1.7 2.6 0.00 0.00 0.00 87 1020.4
20260506202935 56 228 1.7 2.6 0.00 0.00 0.00 87 1020.4
20260506202835 56 265 0.0 0.0 0.00 0.00 0.00 88 1020.4
20260506202735 56 240 0.0 0.9 0.00 0.00 0.00 87 1020.4
20260506202635 56 269 0.0 0.9 0.00 0.00 0.00 88 1020.4
20260506202535 56 269 0.0 0.9 0.00 0.00 0.00 88 1020.4
20260506202235 56 272 0.0 0.0 0.00 0.00 0.00 87 1020.3
20260506202135 56 272 0.0 0.9 0.00 0.00 0.00 87 1020.4
20260506202035 56 258 0.0 0.0 0.00 0.00 0.00 87 1020.4
20260506201735 56 208 0.0 0.0 0.00 0.00 0.00 88 1020.3
20260506201635 56 0 0.0 0.0 0.00 0.00 0.00 89 1020.3
20260506201535 56 0 0.0 0.0 0.00 0.00 0.00 88 1020.3
20260506201435 56 141 0.0 2.6 0.00 0.00 0.00 87 1020.3
20260506201335 56 129 0.9 2.6 0.00 0.00 0.00 88 1020.3
20260506201235 56 226 0.0 0.0 0.00 0.00 0.00 88 1020.3
20260506201135 56 226 0.0 0.9 0.00 0.00 0.00 88 1020.3
20260506201035 56 0 0.0 0.0 0.00 0.00 0.00 88 1020.3
20260506200735 56 215 0.9 2.6 0.00 0.00 0.00 87 1020.3
20260506200635 56 213 1.7 2.6 0.00 0.00 0.00 86 1020.3
20260506200535 56 223 0.9 2.6 0.00 0.00 0.00 86 1020.3
20260506200335 56 253 0.0 0.9 0.00 0.00 0.00 88 1020.3
20260506200035 56 142 0.9 1.7 0.00 0.00 0.00 87 1020.3
20260506195935 56 109 0.0 1.7 0.00 0.00 0.00 87 1020.3
20260506195835 56 0 0.0 0.0 0.00 0.00 0.00 87 1020.3
20260506195735 56 0 0.0 0.0 0.00 0.00 0.00 88 1020.3
20260506195635 56 0 0.0 0.0 0.00 0.00 0.00 88 1020.3
20260506195335 56 279 0.0 0.9 0.00 0.00 0.00 87 1020.3
20260506195235 56 229 0.0 1.7 0.00 0.00 0.00 87 1020.3
20260506195135 56 211 0.0 0.0 0.00 0.00 0.00 87 1020.3
20260506194835 56 0 0.0 0.0 0.00 0.00 0.00 87 1020.2
20260506194736 56 293 0.9 1.7 0.00 0.00 0.00 87 1020.2
20260506194635 56 4 0.0 0.9 0.00 0.00 0.00 87 1020.2
20260506194535 56 224 1.7 2.6 0.00 0.00 0.00 86 1020.1
20260506194436 56 231 0.0 1.7 0.00 0.00 0.00 88 1020.1
20260506194336 56 281 0.0 0.9 0.00 0.00 0.00 88 1020.1
20260506194236 56 53 0.0 0.0 0.00 0.00 0.00 88 1020.1
20260506194136 56 136 0.0 0.9 0.00 0.00 0.00 88 1020.1
20260506194035 56 140 0.9 1.7 0.00 0.00 0.00 88 1020.1
20260506193936 56 105 0.0 1.7 0.00 0.00 0.00 88 1020.1
20260506193835 56 0 0.0 0.0 0.00 0.00 0.00 88 1020.1
20260506193536 55 173 0.0 1.7 0.00 0.00 0.00 88 1020.1
20260506193436 55 0 0.0 0.0 0.00 0.00 0.00 88 1020.1
20260506193336 55 41 0.0 0.9 0.00 0.00 0.00 88 1020.1
20260506193235 55 0 0.0 0.0 0.00 0.00 0.00 88 1020.1
20260506193136 55 226 0.9 1.7 0.00 0.00 0.00 88 1020.1
20260506193036 55 229 0.0 0.9 0.00 0.00 0.00 88 1020.2
20260506192936 55 176 0.9 2.6 0.00 0.00 0.00 89 1020.2
20260506192835 55 145 0.0 0.9 0.00 0.00 0.00 89 1020.1
20260506192736 55 0 0.0 0.0 0.00 0.00 0.00 88 1020.2
20260506192636 55 0 0.0 0.0 0.00 0.00 0.00 89 1020.2
20260506192536 55 0 0.0 0.0 0.00 0.00 0.00 89 1020.2
20260506192236 55 286 0.0 1.7 0.00 0.00 0.00 88 1020.2
20260506191936 55 225 1.7 4.3 0.00 0.00 0.00 89 1020.2
20260506191836 55 212 0.0 1.7 0.00 0.00 0.00 89 1020.2
20260506191736 55 212 0.9 2.6 0.00 0.00 0.00 88 1020.2
20260506191636 55 240 0.0 1.7 0.00 0.00 0.00 89 1020.2
20260506191336 55 274 0.0 0.9 0.00 0.00 0.00 89 1020.2
20260506191236 55 0 0.0 0.0 0.00 0.00 0.00 89 1020.2
20260506191136 55 0 0.0 0.0 0.00 0.00 0.00 89 1020.2
20260506191036 55 0 0.0 0.0 0.00 0.00 0.00 89 1020.2
20260506190936 55 229 0.9 2.6 0.00 0.00 0.00 89 1020.2
20260506190836 55 239 1.7 3.5 0.00 0.00 0.00 89 1020.2
20260506190736 54 259 0.9 3.5 0.00 0.00 0.00 89 1020.2
20260506190436 54 0 0.0 0.0 0.00 0.00 0.00 90 1020.2
20260506190336 54 256 0.0 0.0 0.00 0.00 0.00 90 1020.2
20260506190236 54 230 0.9 1.7 0.00 0.00 0.00 90 1020.2
20260506190136 54 233 0.9 1.7 0.00 0.00 0.00 90 1020.2
20260506190036 54 224 1.7 1.7 0.00 0.00 0.00 89 1020.2
20260506185937 54 221 1.7 3.5 0.00 0.00 0.00 90 1020.2
20260506185636 54 231 0.0 0.9 0.00 0.00 0.00 90 1020.2
20260506185537 54 0 0.0 0.0 0.00 0.00 0.00 91 1020.2
20260506185436 54 215 0.9 1.7 0.00 0.00 0.00 90 1020.3
20260506185136 54 209 1.7 2.6 0.00 0.00 0.00 90 1020.3
20260506185036 54 209 2.6 4.3 0.00 0.00 0.00 90 1020.3
20260506184936 54 219 1.7 2.6 0.00 0.00 0.00 90 1020.3
20260506184837 54 218 0.9 2.6 0.00 0.00 0.00 90 1020.3
20260506184736 54 218 1.7 2.6 0.00 0.00 0.00 89 1020.3
20260506184436 54 225 1.7 2.6 0.00 0.01 0.00 90 1020.3
20260506184336 54 218 1.7 2.6 0.00 0.01 0.00 90 1020.3
20260506184237 54 251 0.9 1.7 0.00 0.01 0.00 90 1020.2
20260506184137 54 231 0.9 2.6 0.00 0.01 0.00 90 1020.2
20260506184037 54 223 1.7 2.6 0.00 0.01 0.00 90 1020.2
20260506183937 54 237 2.6 4.3 0.00 0.01 0.00 90 1020.2
20260506183837 54 272 1.7 3.5 0.00 0.01 0.00 90 1020.2
20260506183737 54 287 1.7 2.6 0.00 0.01 0.00 90 1020.1
20260506183637 54 315 1.7 2.6 0.00 0.01 0.00 91 1020.1
20260506183336 54 0 0.0 0.0 0.00 0.01 0.00 91 1020.0
20260506183237 54 237 0.9 1.7 0.00 0.01 0.00 91 1020.0
20260506183137 54 242 0.9 2.6 0.00 0.01 0.00 91 1020.0
20260506183037 54 229 1.7 2.6 0.00 0.01 0.00 91 1020.0
20260506182737 54 212 2.6 3.5 0.00 0.01 0.00 91 1019.9
20260506182437 54 216 2.6 4.3 0.00 0.01 0.00 91 1019.9
20260506182337 54 244 1.7 2.6 0.00 0.01 0.00 91 1019.9
20260506182237 54 218 1.7 2.6 0.00 0.01 0.00 90 1019.9
20260506182137 54 233 1.7 3.5 0.00 0.01 0.00 91 1019.9
20260506181637 54 0 0.0 0.0 0.00 0.01 0.00 92 1019.9
20260506181537 54 0 0.0 0.0 0.00 0.01 0.00 93 1019.9
20260506181437 54 247 0.0 0.9 0.00 0.01 0.00 93 1019.9
20260506181337 54 241 0.0 0.9 0.00 0.01 0.00 93 1019.9
20260506181237 54 224 0.0 1.7 0.00 0.01 0.00 93 1019.9
20260506181137 54 273 0.9 1.7 0.00 0.01 0.00 92 1019.9
20260506181037 54 292 0.0 0.9 0.00 0.01 0.00 92 1019.9
20260506180937 54 209 0.0 0.0 0.00 0.01 0.00 92 1019.9
20260506180837 54 213 1.7 2.6 0.00 0.01 0.00 92 1019.9
20260506180737 54 208 1.7 2.6 0.00 0.01 0.00 92 1019.9
20260506180637 54 217 0.9 1.7 0.00 0.01 0.00 92 1019.9
20260506180537 54 231 1.7 2.6 0.00 0.01 0.00 92 1019.9
20260506180237 54 221 1.7 2.6 0.00 0.01 0.00 92 1019.9
20260506180137 54 218 1.7 3.5 0.00 0.01 0.00 92 1019.9
20260506180037 54 216 1.7 3.5 0.00 0.01 0.00 93 1019.9
20260506175937 54 221 0.9 1.7 0.00 0.01 0.00 93 1019.9
20260506175837 54 220 2.6 3.5 0.00 0.01 0.00 92 1019.8
20260506175738 54 209 2.6 3.5 0.00 0.01 0.00 93 1019.8
20260506175637 54 209 0.0 1.7 0.00 0.01 0.00 95 1019.9
20260506175537 53 0 0.0 0.0 0.00 0.01 0.00 95 1019.9
20260506175438 53 0 0.0 0.0 0.00 0.01 0.00 94 1019.9
20260506175337 53 227 0.0 0.0 0.00 0.01 0.00 94 1019.9
20260506175038 53 0 0.0 0.0 0.00 0.01 0.00 94 1020.1
20260506174738 53 0 0.0 0.0 0.00 0.01 0.00 94 1020.1
20260506174638 53 219 0.0 1.7 0.00 0.01 0.00 94 1020.1
20260506174537 53 214 1.7 2.6 0.00 0.01 0.00 94 1020.1
20260506174438 53 214 0.9 2.6 0.00 0.01 0.00 94 1020.1
20260506174337 53 221 0.9 1.7 0.00 0.01 0.00 94 1020.1
20260506174238 53 217 0.9 1.7 0.00 0.01 0.00 95 1020.1
20260506174139 53 223 0.0 0.9 0.00 0.01 0.00 95 1020.1
20260506174038 53 228 0.9 1.7 0.00 0.01 0.00 95 1020.1
20260506173738 53 230 1.7 2.6 0.00 0.01 0.00 95 1020.0
20260506173638 53 226 0.9 1.7 0.00 0.01 0.00 95 1020.1
20260506173338 53 217 0.9 1.7 0.00 0.01 0.00 95 1020.0
20260506173238 53 213 1.7 2.6 0.00 0.01 0.00 95 1020.0
20260506173138 53 206 2.6 3.5 0.00 0.01 0.00 95 1020.0
20260506173038 53 212 1.7 1.7 0.00 0.01 0.00 95 1020.1
20260506172938 53 214 1.7 2.6 0.00 0.01 0.00 95 1020.1
20260506172838 53 220 1.7 2.6 0.00 0.01 0.00 95 1020.1
20260506172738 53 248 0.9 2.6 0.00 0.01 0.00 95 1020.1
20260506172638 53 222 2.6 4.3 0.00 0.01 0.00 95 1020.0
20260506172338 53 330 0.9 2.6 0.00 0.01 0.00 95 1020.0
20260506172238 53 257 0.9 2.6 0.00 0.01 0.00 95 1020.0
20260506172138 53 229 1.7 2.6 0.00 0.01 0.00 95 1020.0
20260506172038 53 280 0.9 2.6 0.00 0.01 0.00 95 1020.0
20260506171938 53 261 1.7 3.5 0.00 0.01 0.00 95 1020.0
20260506171838 53 279 1.7 2.6 0.00 0.01 0.00 95 1019.9
20260506171738 53 264 0.9 3.5 0.00 0.01 0.00 96 1019.9
20260506171638 53 272 0.9 1.7 0.00 0.01 0.00 96 1019.9
20260506171538 53 247 0.9 3.5 0.00 0.01 0.00 96 1019.9
20260506171438 53 255 0.9 1.7 0.00 0.01 0.00 96 1019.9
20260506171338 53 234 0.9 1.7 0.00 0.01 0.00 96 1019.9
20260506171238 53 214 1.7 2.6 0.00 0.01 0.00 96 1019.9
20260506171138 53 239 0.9 2.6 0.00 0.01 0.00 96 1019.9
20260506171038 53 249 0.0 0.9 0.00 0.01 0.00 96 1019.9
20260506170938 53 241 0.9 1.7 0.00 0.01 0.00 96 1019.9
20260506170838 53 220 0.9 1.7 0.00 0.01 0.00 96 1019.9
20260506170738 53 240 0.9 1.7 0.00 0.01 0.00 96 1019.9
20260506170638 53 225 0.9 1.7 0.00 0.01 0.00 96 1019.9
20260506170538 53 294 0.0 1.7 0.00 0.01 0.00 96 1019.9
20260506170438 53 305 0.9 1.7 0.00 0.01 0.00 96 1019.9
20260506170338 53 247 0.9 1.7 0.00 0.01 0.00 96 1019.9
20260506170238 53 232 0.9 1.7 0.00 0.01 0.00 96 1019.9
20260506170138 53 231 0.9 1.7 0.00 0.01 0.00 96 1019.9
20260506165838 53 265 0.9 2.6 0.00 0.01 0.00 96 1019.8
20260506165738 53 260 0.9 1.7 0.00 0.01 0.00 96 1019.8
20260506165638 53 272 1.7 3.5 0.00 0.01 0.00 96 1019.8
20260506165538 53 253 1.7 2.6 0.00 0.01 0.00 96 1019.8
20260506165438 53 219 1.7 2.6 0.00 0.01 0.00 96 1019.7
20260506165338 53 242 0.9 2.6 0.00 0.01 0.00 96 1019.7
20260506164839 53 220 1.7 2.6 0.00 0.01 0.00 97 1019.6
20260506164538 53 0 0.0 0.0 0.00 0.01 0.00 98 1019.5
20260506164438 53 0 0.0 0.0 0.00 0.01 0.00 98 1019.5
20260506164339 53 233 0.0 0.9 0.00 0.01 0.00 98 1019.4
20260506164238 53 217 0.0 0.0 0.00 0.01 0.00 97 1019.4
20260506164139 53 210 0.0 1.7 0.00 0.01 0.00 98 1019.4
20260506164038 53 260 0.0 0.9 0.00 0.01 0.00 98 1019.4
20260506163939 53 279 0.0 0.0 0.00 0.01 0.00 98 1019.4
20260506163839 53 232 0.9 2.6 0.00 0.01 0.00 98 1019.4
20260506163539 52 219 0.9 2.6 0.00 0.01 0.00 98 1019.4
20260506163439 52 227 0.9 1.7 0.00 0.01 0.00 98 1019.4
20260506163339 52 219 1.7 2.6 0.00 0.01 0.00 98 1019.4
20260506163239 52 223 2.6 2.6 0.00 0.01 0.00 98 1019.5
20260506162739 52 218 0.9 2.6 0.00 0.01 0.00 98 1019.4
20260506162439 52 209 1.7 1.7 0.00 0.01 0.00 98 1019.3
20260506162339 52 213 1.7 2.6 0.00 0.01 0.00 98 1019.3
20260506162239 52 0 0.0 0.0 0.00 0.01 0.00 98 1019.3
20260506162139 52 0 0.0 0.0 0.00 0.01 0.00 98 1019.3
20260506162039 52 0 0.0 0.0 0.00 0.01 0.00 98 1019.3
20260506161739 52 245 0.0 0.9 0.00 0.01 0.00 98 1019.4
20260506161639 52 205 1.7 2.6 0.00 0.01 0.00 98 1019.4
20260506161539 52 212 1.7 2.6 0.00 0.01 0.00 98 1019.5
20260506161039 52 217 1.7 2.6 0.00 0.01 0.00 98 1019.6
20260506160739 52 237 1.7 2.6 0.00 0.01 0.00 98 1019.6
20260506160239 53 276 0.9 1.7 0.00 0.01 0.00 98 1019.7
20260506155940 53 208 1.7 2.6 0.00 0.01 0.00 98 1019.6
20260506155840 53 236 0.9 2.6 0.00 0.01 0.00 98 1019.6
20260506155739 53 231 1.7 1.7 0.00 0.01 0.00 98 1019.6
20260506155641 53 208 0.9 1.7 0.00 0.01 0.00 98 1019.6
20260506155540 53 213 0.9 1.7 0.00 0.01 0.00 98 1019.6
20260506155440 53 234 0.0 0.9 0.00 0.01 0.00 98 1019.6
20260506155340 53 216 0.9 1.7 0.00 0.01 0.00 97 1019.6
20260506155040 53 209 1.7 2.6 0.00 0.01 0.00 97 1019.6
20260506154940 53 263 0.9 2.6 0.00 0.01 0.00 97 1019.5
20260506154839 53 0 0.0 1.7 0.00 0.01 0.00 97 1019.5
20260506154739 53 211 0.9 2.6 0.00 0.01 0.00 97 1019.5
20260506154640 53 235 1.7 2.6 0.00 0.01 0.00 97 1019.5
20260506154339 53 0 0.0 0.9 0.00 0.01 0.00 97 1019.5
20260506154240 53 0 0.0 0.0 0.00 0.01 0.00 97 1019.5
20260506154140 53 0 0.0 0.9 0.00 0.01 0.00 97 1019.5
20260506154040 53 0 0.0 0.0 0.00 0.01 0.00 98 1019.5
20260506153940 53 289 0.0 0.9 0.00 0.01 0.00 98 1019.5
20260506153640 53 0 0.0 0.0 0.00 0.01 0.00 98 1019.4
20260506153540 53 215 0.9 1.7 0.00 0.01 0.00 98 1019.4
20260506153440 53 211 0.0 1.7 0.00 0.01 0.00 98 1019.4
20260506153340 53 253 0.9 1.7 0.00 0.01 0.00 98 1019.4
20260506153240 53 330 0.0 1.7 0.00 0.01 0.00 98 1019.3
20260506153140 53 0 0.0 0.0 0.00 0.01 0.00 98 1019.3
20260506153040 53 0 0.0 0.0 0.00 0.01 0.00 98 1019.3
20260506152940 53 0 0.0 0.0 0.00 0.01 0.00 98 1019.3
20260506152840 53 0 0.0 0.0 0.00 0.01 0.00 98 1019.3
20260506152740 53 0 0.0 0.0 0.00 0.01 0.00 98 1019.3
20260506152640 53 72 0.0 0.9 0.00 0.01 0.00 98 1019.3
20260506152540 53 0 0.0 0.0 0.00 0.01 0.00 98 1019.3
20260506152440 53 0 0.0 0.0 0.00 0.01 0.00 98 1019.4
20260506152340 53 0 0.0 0.0 0.00 0.01 0.00 98 1019.4
20260506152240 53 0 0.0 0.9 0.00 0.01 0.00 98 1019.4
20260506152140 53 239 0.0 0.9 0.00 0.01 0.00 98 1019.4
20260506151840 53 0 0.0 0.0 0.00 0.01 0.00 98 1019.4
20260506151740 53 0 0.0 0.0 0.00 0.01 0.00 98 1019.4
20260506151640 52 0 0.0 0.0 0.00 0.01 0.00 98 1019.5
20260506151340 52 197 0.9 2.6 0.00 0.01 0.00 98 1019.5
20260506151240 52 227 0.0 0.9 0.00 0.01 0.00 98 1019.5
20260506151140 52 304 0.0 0.9 0.00 0.01 0.00 98 1019.5
20260506151040 52 270 0.0 0.9 0.00 0.01 0.00 98 1019.5
20260506150940 52 0 0.0 0.0 0.00 0.01 0.00 98 1019.5
20260506150840 52 0 0.0 0.0 0.00 0.01 0.00 98 1019.5
20260506150740 52 0 0.0 0.0 0.00 0.01 0.00 98 1019.5
20260506150440 52 194 1.7 2.6 0.00 0.01 0.00 98 1019.5
20260506145940 53 214 1.7 2.6 0.00 0.01 0.00 98 1019.6
20260506145840 53 229 0.9 2.6 0.00 0.01 0.00 98 1019.6
20260506145540 53 201 1.7 2.6 0.00 0.01 0.00 98 1019.6
20260506145440 53 210 1.7 2.6 0.00 0.01 0.00 98 1019.5
20260506145340 53 209 1.7 2.6 0.00 0.01 0.00 98 1019.5
20260506145240 53 205 0.9 1.7 0.00 0.01 0.00 98 1019.5
20260506145141 53 204 2.6 3.5 0.00 0.01 0.00 98 1019.4
20260506145041 53 203 0.9 1.7 0.00 0.01 0.00 98 1019.4
20260506144940 53 241 0.0 0.9 0.00 0.01 0.00 98 1019.3
20260506144840 53 0 0.0 0.0 0.00 0.01 0.00 98 1019.3
20260506144740 53 0 0.0 0.0 0.00 0.01 0.00 98 1019.3
20260506144641 53 0 0.0 0.0 0.00 0.01 0.00 98 1019.3
20260506144341 53 217 0.0 0.9 0.00 0.01 0.00 98 1019.3
20260506144041 53 234 0.9 1.7 0.00 0.01 0.00 98 1019.2
20260506143941 53 0 0.0 0.0 0.00 0.01 0.00 98 1019.2
20260506143841 53 0 0.0 0.0 0.00 0.01 0.00 98 1019.1
20260506143741 53 0 0.0 0.0 0.00 0.01 0.00 98 1019.1
20260506143541 53 0 0.0 0.0 0.00 0.01 0.00 98 1019.0
20260506143441 53 0 0.0 0.0 0.00 0.01 0.00 98 1019.0
20260506143341 53 0 0.0 0.0 0.00 0.01 0.00 98 1019.0
20260506142941 53 123 0.0 0.9 0.00 0.01 0.00 98 1019.1
20260506142841 53 0 0.0 0.0 0.00 0.01 0.00 98 1019.2
20260506142741 53 298 0.0 0.0 0.00 0.01 0.00 98 1019.2
20260506142641 53 298 0.0 0.9 0.00 0.01 0.00 98 1019.2
20260506142541 53 0 0.0 0.0 0.00 0.01 0.00 98 1019.2
20260506142441 52 0 0.0 0.0 0.00 0.01 0.00 98 1019.2
20260506142341 52 0 0.0 0.0 0.00 0.01 0.00 98 1019.2
20260506142241 52 211 0.0 0.9 0.00 0.01 0.00 98 1019.2
20260506142141 52 0 0.0 0.0 0.00 0.01 0.00 98 1019.2
20260506142041 52 0 0.0 0.0 0.00 0.01 0.00 98 1019.2
20260506141741 52 0 0.0 0.0 0.00 0.01 0.00 98 1019.2
20260506141641 52 0 0.0 0.0 0.00 0.01 0.00 98 1019.2
20260506141541 52 0 0.0 0.0 0.00 0.01 0.00 98 1019.2
20260506141441 52 0 0.0 0.9 0.00 0.01 0.00 98 1019.2
20260506141141 52 197 0.9 1.7 0.00 0.01 0.00 98 1019.4
20260506140841 52 221 0.9 1.7 0.00 0.01 0.00 98 1019.4
20260506140741 52 216 1.7 2.6 0.00 0.01 0.00 98 1019.4
20260506140641 52 215 0.9 1.7 0.00 0.01 0.00 98 1019.3
20260506140541 52 286 0.9 1.7 0.00 0.01 0.00 98 1019.3
20260506140441 52 293 0.9 1.7 0.00 0.01 0.00 98 1019.3
20260506140341 52 246 0.0 1.7 0.00 0.01 0.00 98 1019.3
20260506140241 52 221 0.9 1.7 0.00 0.01 0.00 98 1019.3
20260506135741 53 272 0.0 1.7 0.00 0.01 0.00 98 1019.3
20260506135641 53 227 0.0 1.7 0.00 0.01 0.00 98 1019.3
20260506135541 53 218 0.9 1.7 0.00 0.01 0.00 98 1019.4
20260506135441 53 228 0.9 1.7 0.00 0.01 0.00 98 1019.4
20260506135341 53 0 0.0 0.9 0.00 0.01 0.00 98 1019.4
20260506135241 53 333 0.9 1.7 0.00 0.01 0.00 98 1019.4
20260506135141 53 0 0.9 1.7 0.00 0.01 0.00 98 1019.4
20260506135041 53 216 0.9 1.7 0.00 0.01 0.00 98 1019.3
20260506134941 53 228 0.0 1.7 0.00 0.01 0.00 98 1019.3
20260506134841 53 221 0.9 2.6 0.00 0.01 0.00 98 1019.3
20260506134742 53 214 1.7 2.6 0.00 0.01 0.00 98 1019.2
20260506134642 53 208 0.0 0.9 0.00 0.01 0.00 97 1019.2
20260506134342 53 221 0.0 1.7 0.00 0.01 0.00 98 1019.1
20260506134242 53 230 1.7 3.5 0.00 0.01 0.00 98 1019.1
20260506134142 53 232 0.9 1.7 0.00 0.01 0.00 98 1019.1
20260506134042 53 215 0.9 1.7 0.00 0.01 0.00 97 1019.1
20260506133942 53 223 0.9 1.7 0.00 0.01 0.00 97 1019.1
20260506133842 53 205 1.7 2.6 0.00 0.01 0.00 97 1019.1
20260506133742 53 218 0.0 0.9 0.00 0.01 0.00 97 1019.1
20260506133642 53 258 0.0 0.0 0.00 0.01 0.00 97 1019.1
20260506133542 53 257 0.0 1.7 0.00 0.01 0.00 97 1019.1
20260506133342 53 203 0.9 1.7 0.00 0.01 0.00 97 1019.2
20260506133242 53 0 0.9 2.6 0.00 0.01 0.00 97 1019.1
20260506132942 53 0 0.0 0.0 0.00 0.01 0.00 97 1018.9
20260506132642 53 0 0.0 0.0 0.00 0.01 0.00 97 1018.7
20260506132342 53 0 0.0 0.0 0.00 0.01 0.00 97 1018.8
20260506132242 53 0 0.0 0.0 0.00 0.01 0.00 97 1018.8
20260506132142 53 0 0.0 0.0 0.00 0.01 0.00 97 1018.8
20260506132042 53 226 0.0 1.7 0.00 0.01 0.00 97 1018.8
20260506131942 53 202 0.9 1.7 0.00 0.01 0.00 97 1018.9
20260506131642 53 0 0.0 0.0 0.00 0.01 0.00 97 1018.8
20260506131542 53 0 0.0 0.0 0.00 0.01 0.00 97 1018.8
20260506131442 53 0 0.0 0.0 0.00 0.01 0.00 97 1018.8
20260506131342 53 0 0.0 0.0 0.00 0.01 0.00 97 1018.8
20260506131142 53 0 0.0 0.0 0.00 0.01 0.00 97 1018.8
20260506131042 53 0 0.0 0.0 0.00 0.01 0.00 97 1018.8
20260506130943 53 285 0.0 0.0 0.00 0.01 0.00 97 1018.7
20260506130642 53 220 0.0 1.7 0.00 0.01 0.00 97 1018.8
20260506130542 53 211 0.0 1.7 0.00 0.01 0.00 97 1018.8
20260506130442 53 220 0.9 2.6 0.00 0.01 0.00 97 1018.8
20260506130342 53 0 0.0 0.0 0.00 0.01 0.00 97 1018.8
20260506130243 53 0 0.0 0.0 0.00 0.01 0.00 97 1018.8
20260506130143 53 0 0.0 0.0 0.00 0.01 0.00 97 1018.8
20260506130042 53 0 0.0 0.0 0.00 0.01 0.00 97 1018.7
20260506125942 53 234 0.0 1.7 0.00 0.01 0.00 97 1018.7
20260506125843 53 218 0.0 1.7 0.00 0.01 0.00 97 1018.7
20260506125542 53 238 0.0 0.9 0.00 0.01 0.00 97 1018.7
20260506125242 53 0 0.0 0.0 0.00 0.01 0.00 97 1018.6
20260506125143 53 0 0.0 0.9 0.00 0.01 0.00 97 1018.6
20260506125042 53 0 0.0 0.0 0.00 0.01 0.00 97 1018.6
20260506124942 53 0 0.0 0.0 0.00 0.01 0.00 97 1018.7
20260506124843 53 0 0.0 0.0 0.00 0.01 0.00 97 1018.6
20260506124543 53 0 0.0 0.0 0.00 0.01 0.00 97 1018.6
20260506124443 53 0 0.0 0.0 0.00 0.01 0.00 97 1018.6
20260506124343 53 215 0.9 1.7 0.00 0.01 0.00 97 1018.6
20260506124043 53 0 0.0 0.0 0.00 0.01 0.00 97 1018.6
20260506123943 53 0 0.0 0.0 0.00 0.01 0.00 97 1018.6
20260506123843 53 0 0.0 0.0 0.00 0.01 0.00 97 1018.5
20260506123543 53 0 0.0 0.0 0.00 0.01 0.00 96 1018.4
20260506123243 53 0 0.0 0.0 0.00 0.01 0.00 96 1018.5
20260506123143 53 0 0.0 0.0 0.00 0.01 0.00 96 1018.5
20260506122843 53 0 0.0 0.0 0.00 0.01 0.00 96 1018.5
20260506122743 53 0 0.0 0.0 0.00 0.01 0.00 96 1018.5
20260506122643 53 0 0.0 0.0 0.00 0.01 0.00 96 1018.5
20260506122543 53 226 0.0 0.9 0.00 0.01 0.00 96 1018.5
20260506122443 53 215 0.9 1.7 0.00 0.01 0.00 95 1018.5
20260506122343 53 209 0.9 1.7 0.00 0.01 0.00 95 1018.5
20260506122243 53 216 0.0 1.7 0.00 0.01 0.00 95 1018.5
20260506122143 53 212 0.0 1.7 0.00 0.01 0.00 95 1018.5
20260506122043 53 0 0.0 0.0 0.00 0.01 0.00 95 1018.5
20260506121943 53 0 0.0 0.0 0.00 0.01 0.00 95 1018.5
20260506121843 53 0 0.0 0.0 0.00 0.01 0.00 95 1018.5
20260506121743 53 0 0.0 0.0 0.00 0.01 0.00 95 1018.5
20260506121643 53 0 0.0 0.0 0.00 0.01 0.00 95 1018.5
20260506121343 53 276 0.0 0.0 0.00 0.01 0.00 95 1018.4
20260506121243 54 317 0.0 1.7 0.00 0.01 0.00 95 1018.4
20260506121043 54 0 0.0 0.0 0.00 0.01 0.00 95 1018.4
20260506120943 54 0 0.0 0.0 0.00 0.01 0.00 95 1018.4
20260506120643 54 0 0.0 0.0 0.00 0.01 0.00 94 1018.3
20260506120343 54 0 0.0 0.0 0.00 0.01 0.00 94 1018.3
20260506120243 54 345 0.0 0.9 0.00 0.01 0.00 94 1018.3
20260506120144 54 0 0.0 0.0 0.00 0.01 0.00 94 1018.3
20260506120043 54 0 0.0 0.0 0.00 0.01 0.00 94 1018.3
20260506115944 54 0 0.0 0.0 0.00 0.01 0.00 94 1018.3
20260506115843 54 0 0.0 0.0 0.00 0.01 0.00 94 1018.3
20260506115744 54 0 0.0 0.0 0.00 0.01 0.00 94 1018.3
20260506115643 54 0 0.0 0.0 0.00 0.01 0.00 94 1018.3
20260506115543 54 0 0.0 0.0 0.00 0.01 0.00 94 1018.3
20260506115244 54 0 0.0 0.0 0.00 0.01 0.00 93 1018.3
20260506115143 54 0 0.0 0.0 0.00 0.01 0.00 93 1018.3
20260506115044 54 0 0.0 0.0 0.00 0.01 0.00 93 1018.3
20260506114943 54 0 0.0 0.0 0.00 0.01 0.00 93 1018.3
20260506114844 54 0 0.0 0.0 0.00 0.01 0.00 93 1018.3
20260506114744 54 0 0.0 0.0 0.00 0.01 0.00 93 1018.3
20260506114644 54 0 0.0 0.0 0.00 0.01 0.00 93 1018.3
20260506114544 54 0 0.0 0.0 0.00 0.01 0.00 93 1018.3
20260506114444 54 0 0.0 0.0 0.00 0.01 0.00 93 1018.3
20260506114343 54 0 0.0 0.0 0.00 0.01 0.00 92 1018.3
20260506114244 54 0 0.0 0.0 0.00 0.01 0.00 92 1018.3
20260506114144 54 0 0.0 0.0 0.00 0.01 0.00 92 1018.3
20260506114044 54 313 0.0 0.9 0.00 0.01 0.00 92 1018.3
20260506113944 54 0 0.0 0.0 0.00 0.01 0.00 92 1018.3
20260506113844 54 231 0.9 1.7 0.00 0.01 0.00 92 1018.4
20260506113744 54 0 0.0 0.0 0.00 0.01 0.00 92 1018.4
20260506113644 54 0 0.0 0.0 0.00 0.01 0.00 92 1018.4
20260506113544 54 0 0.0 0.0 0.00 0.01 0.00 92 1018.4
20260506113444 54 0 0.0 0.0 0.00 0.01 0.00 92 1018.4
20260506113344 54 209 0.0 1.7 0.00 0.01 0.00 92 1018.4
20260506113044 54 0 0.0 0.0 0.00 0.01 0.00 91 1018.3
20260506112744 54 0 0.0 0.0 0.00 0.01 0.00 91 1018.3
20260506112644 54 0 0.0 0.0 0.00 0.01 0.00 91 1018.3
20260506112544 54 0 0.0 0.0 0.00 0.01 0.00 91 1018.3
20260506112244 54 0 0.0 0.0 0.00 0.01 0.00 91 1018.3
20260506112144 54 0 0.0 0.9 0.00 0.01 0.00 91 1018.3
20260506112044 54 0 0.0 0.0 0.00 0.01 0.00 91 1018.3
20260506111944 54 0 0.0 0.0 0.00 0.01 0.00 91 1018.3
20260506111844 54 0 0.0 0.0 0.00 0.01 0.00 91 1018.3
20260506111744 54 0 0.0 0.0 0.00 0.01 0.00 91 1018.3
20260506111644 54 0 0.0 0.0 0.00 0.01 0.00 91 1018.3
20260506111544 54 0 0.0 0.0 0.00 0.01 0.00 91 1018.2
20260506111444 54 0 0.0 0.0 0.00 0.01 0.00 91 1018.2
20260506111344 54 0 0.0 0.0 0.00 0.01 0.00 91 1018.2
20260506111244 54 0 0.0 0.0 0.00 0.01 0.00 91 1018.2
20260506111144 54 245 0.0 0.9 0.00 0.01 0.00 91 1018.2
20260506111044 54 0 0.0 0.0 0.00 0.01 0.00 91 1018.2
20260506110944 54 16 0.0 1.7 0.00 0.01 0.00 90 1018.2
20260506110845 54 0 0.0 0.0 0.00 0.01 0.00 90 1018.2
20260506110744 54 0 0.0 0.0 0.00 0.01 0.00 91 1018.2
20260506110444 54 0 0.0 0.0 0.00 0.01 0.00 90 1018.2
20260506110344 54 0 0.0 0.0 0.00 0.01 0.00 90 1018.2
20260506110045 54 226 0.0 0.9 0.00 0.01 0.00 90 1018.2
20260506105945 54 0 0.0 0.0 0.00 0.01 0.00 90 1018.2
20260506105845 54 0 0.0 0.0 0.00 0.01 0.00 90 1018.1
20260506105745 54 0 0.0 0.0 0.00 0.01 0.00 90 1018.1
20260506105645 54 0 0.0 0.0 0.00 0.01 0.00 90 1018.1
20260506105544 54 0 0.0 0.0 0.00 0.01 0.00 90 1018.1
20260506105445 54 0 0.0 0.0 0.00 0.01 0.00 90 1018.1
20260506105344 54 0 0.0 0.0 0.00 0.01 0.00 90 1018.1
20260506105245 54 0 0.0 0.0 0.00 0.01 0.00 90 1018.1
20260506105144 54 0 0.0 0.0 0.00 0.01 0.00 90 1018.1
20260506105045 54 0 0.0 0.0 0.00 0.01 0.00 90 1018.0
20260506104945 54 248 0.0 0.9 0.00 0.01 0.00 90 1018.0
20260506104845 54 230 0.9 1.7 0.00 0.01 0.00 90 1018.0
20260506104545 54 252 0.0 0.0 0.00 0.01 0.00 90 1018.0
20260506104445 54 0 0.0 0.0 0.00 0.01 0.00 90 1018.0
20260506104345 54 206 0.0 0.9 0.00 0.01 0.00 90 1018.0
20260506104245 54 232 0.9 2.6 0.00 0.01 0.00 89 1018.0
20260506104145 54 257 0.0 0.9 0.00 0.01 0.00 89 1018.0
20260506104045 54 223 0.0 1.7 0.00 0.01 0.00 90 1018.0
20260506103945 54 0 0.0 0.0 0.00 0.01 0.00 90 1018.0
20260506103445 54 0 0.0 0.9 0.00 0.01 0.00 89 1017.9
20260506103345 54 229 0.9 1.7 0.00 0.01 0.00 89 1017.9
20260506103245 54 203 0.9 1.7 0.00 0.01 0.00 90 1017.9
20260506103145 54 244 0.0 0.9 0.00 0.01 0.00 90 1017.9
20260506103045 54 243 0.0 0.9 0.00 0.01 0.00 90 1017.8
20260506102945 54 305 0.0 1.7 0.00 0.01 0.00 90 1017.8
20260506102845 54 296 0.9 1.7 0.00 0.01 0.00 90 1017.8
20260506102745 54 231 0.9 1.7 0.00 0.01 0.00 90 1017.8
20260506102645 54 233 0.9 1.7 0.00 0.01 0.00 90 1017.8
20260506102545 54 212 1.7 1.7 0.00 0.01 0.00 90 1017.8
20260506102445 54 210 1.7 1.7 0.00 0.01 0.00 90 1017.8
20260506102345 54 214 1.7 1.7 0.00 0.01 0.00 90 1017.8
20260506102245 54 211 0.9 1.7 0.00 0.01 0.00 90 1017.8
20260506102145 54 232 0.0 0.9 0.00 0.01 0.00 90 1017.8
20260506102045 54 211 0.9 2.6 0.00 0.01 0.00 90 1017.8
20260506101945 55 204 1.7 3.5 0.00 0.01 0.00 90 1017.8
20260506101845 55 208 0.9 1.7 0.00 0.01 0.00 90 1017.7
20260506101745 55 253 0.9 1.7 0.00 0.01 0.00 90 1017.7
20260506101645 55 284 0.0 0.9 0.00 0.01 0.00 90 1017.7
20260506101545 55 274 0.0 2.6 0.00 0.01 0.00 90 1017.7
20260506101445 55 297 1.7 2.6 0.00 0.01 0.00 90 1017.7
20260506101145 55 0 0.0 1.7 0.00 0.01 0.00 90 1017.7
20260506101045 55 300 0.9 1.7 0.00 0.01 0.00 90 1017.6
20260506100946 55 305 0.0 1.7 0.00 0.01 0.00 90 1017.6
20260506100845 55 274 0.0 1.7 0.00 0.01 0.00 90 1017.6
20260506100745 55 245 1.7 2.6 0.00 0.01 0.00 90 1017.6
20260506100645 55 249 0.9 1.7 0.00 0.01 0.00 90 1017.6
20260506100546 55 229 1.7 2.6 0.00 0.01 0.00 89 1017.6
20260506100445 55 303 0.9 1.7 0.00 0.01 0.00 89 1017.6
20260506100345 55 263 0.9 1.7 0.00 0.01 0.00 89 1017.6
20260506100245 55 229 0.9 1.7 0.00 0.01 0.00 89 1017.5
20260506100145 55 295 0.9 1.7 0.00 0.01 0.00 89 1017.5
20260506100046 55 222 1.7 2.6 0.00 0.01 0.00 89 1017.5
20260506095946 55 206 1.7 3.5 0.00 0.01 0.00 89 1017.5
20260506095845 55 227 1.7 1.7 0.00 0.01 0.00 89 1017.5
20260506095745 55 207 0.9 1.7 0.00 0.01 0.00 89 1017.5
20260506095646 55 198 1.7 2.6 0.00 0.01 0.00 89 1017.5
20260506095546 55 209 2.6 3.5 0.00 0.01 0.00 89 1017.5
20260506095445 55 202 1.7 2.6 0.00 0.01 0.00 89 1017.5
20260506095346 55 206 2.6 2.6 0.00 0.01 0.00 89 1017.5
20260506095045 55 234 0.9 2.6 0.00 0.01 0.00 89 1017.5
20260506094545 55 214 0.9 1.7 0.00 0.01 0.00 89 1017.4
20260506094446 55 222 1.7 2.6 0.00 0.01 0.00 89 1017.4
20260506094346 55 217 2.6 3.5 0.00 0.01 0.00 89 1017.4
20260506094246 55 224 1.7 2.6 0.00 0.01 0.00 89 1017.4
20260506093946 55 261 0.9 1.7 0.00 0.01 0.00 90 1017.3